Regional Weather Roundup
Issued by NWS Memphis, TN

Home | Current Version | Previous Version | Text Only | Print | Product List | Glossary On
Versions: 1 2 3 4 5 6 7 8 9 10 11 12 13 14 15 16 17 18 19 20 21 22 23 24 25 26 27 28 29 30 31 32 33 34 35 36 37 38 39 40 41 42 43 44 45 46 47 48 49 50
000
ASUS44 KMEG 101200
RWRMEG
MEMPHIS CWA HOURLY WEATHER ROUNDUP
NATIONAL WEATHER SERVICE MEMPHIS TN
600 AM CST SAT DEC 10 2016

...WEST TENNESSEE...

CITY           SKY/WX    TMP DP  RH WIND       PRES   REMARKS
MEMPHIS INTL   CLEAR     24  18  77 E5        30.59R WCI  18
6HR MIN TEMP:  24; 6HR MAX TEMP:  28;

NWS MEMPHIS      N/A     20 N/A N/A MISG        N/A
JACKSON        CLOUDY    17  15  92 CALM      30.60R
6HR MIN TEMP:  17; 6HR MAX TEMP:  21;

BOLIVAR        CLEAR     18  16  93 CALM      30.58R
LEXINGTON      CLEAR     16  12  86 CALM      30.58R
DYERSBURG      CLEAR     21  18  86 CALM      30.60R
6HR MIN TEMP:  19; 6HR MAX TEMP:  23;

UNION CITY     CLEAR     16  16 100 CALM      30.59R
PARIS          CLEAR     12  10  92 CALM      30.59R


...EASTERN ARKANSAS...

CITY           SKY/WX    TMP DP  RH WIND       PRES   REMARKS
JONESBORO      CLEAR     21  19  92 CALM      30.61R
6HR MIN TEMP:  21; 6HR MAX TEMP:  24;

WEST MEMPHIS   PTCLDY    21  18  88 CALM      30.60R
6HR MIN TEMP:  20; 6HR MAX TEMP:  25;

BATESVILLE     PTCLDY    19  16  86 CALM      30.60R
6HR MIN TEMP:  19; 6HR MAX TEMP:  23;

NEWPORT        CLEAR     23  21  92 NW3       30.62R
6HR MIN TEMP:  22; 6HR MAX TEMP:  24;

WALNUT RIDGE   CLEAR     23  19  86 N3        30.60R
6HR MIN TEMP:  21; 6HR MAX TEMP:  27;

BLYTHEVILLE    CLEAR     22  18  85 CALM      30.61R
6HR MIN TEMP:  22; 6HR MAX TEMP:  26;

SEARCY         MOCLDY    19  18  95 CALM      30.63R
6HR MIN TEMP:  18; 6HR MAX TEMP:  21;

STUTTGART      PTCLDY    27  18  69 E3        30.60R
6HR MIN TEMP:  27; 6HR MAX TEMP:  28;

PINE BLUFF     CLOUDY    29  26  89 CALM      30.60R
6HR MIN TEMP:  24; 6HR MAX TEMP:  29;

MONTICELLO     PTCLDY    25  22  88 E3        30.58R
6HR MIN TEMP:  24; 6HR MAX TEMP:  27;



...NORTH MISSISSIPPI...

CITY           SKY/WX    TMP DP  RH WIND       PRES   REMARKS
TUPELO         CLEAR     21  16  81 N3        30.59R
6HR MIN TEMP:  20; 6HR MAX TEMP:  25;

BATESVILLE     CLEAR     20  19  96 CALM      30.60S
6HR MIN TEMP:  19; 6HR MAX TEMP:  23;

TUNICA         CLEAR     23  21  93 CALM      30.61R
CLARKSDALE     CLEAR     27  25  93 CALM      30.59F
GREENWOOD      CLEAR     25  17  72 NE5       30.58S WCI  19
6HR MIN TEMP:  22; 6HR MAX TEMP:  26;

COLUMBUS       CLEAR     24  21  89 CALM      30.58R
6HR MIN TEMP:  23; 6HR MAX TEMP:  28;

STARKVILLE     CLEAR     21  21 100 CALM      30.59S
GOLDEN TRIANGL CLEAR     21  16  79 CALM      30.54S


...SOUTHEAST MISSOURI...

CITY           SKY/WX    TMP DP  RH WIND       PRES   REMARKS
KENNETT        CLEAR     21  19  93 CALM      30.60S
WEST PLAINS    CLOUDY    17  12  80 CALM      30.53R
6HR MIN TEMP:  16; 6HR MAX TEMP:  25;

POPLAR BLUFF   CLOUDY    18  16  92 CALM      30.60S
6HR MIN TEMP:  18; 6HR MAX TEMP:  22;

CAPE GIRARDEAU CLEAR     17  13  84 CALM      30.60S
6HR MIN TEMP:  16; 6HR MAX TEMP:  20;



...NORTHWEST ALABAMA...

CITY           SKY/WX    TMP DP  RH WIND       PRES   REMARKS
MUSCLE SHOALS  CLEAR     23  19  85 CALM      30.60R
6HR MIN TEMP:  22; 6HR MAX TEMP:  30;



...MIDDLE TENNESSEE...

CITY           SKY/WX    TMP DP  RH WIND       PRES   REMARKS
NASHVILLE      CLEAR     20  15  81 CALM      30.59S
6HR MIN TEMP:  19; 6HR MAX TEMP:  25;

CLARKSVILLE    CLOUDY    16  12  84 CALM      30.60R
6HR MIN TEMP:  15; 6HR MAX TEMP:  21;



...WESTERN KENTUCKY...

CITY           SKY/WX    TMP DP  RH WIND       PRES   REMARKS
PADUCAH        CLEAR     15  12  88 CALM      30.59F
6HR MIN TEMP:  14; 6HR MAX TEMP:  18;

FORT CAMPBELL  CLOUDY    18  16  90 CALM      30.59R
6HR MIN TEMP:  18; 6HR MAX TEMP:  22;



...CENTRAL ARKANSAS...

CITY           SKY/WX    TMP DP  RH WIND       PRES   REMARKS
LITTLE ROCK    CLOUDY    28  27  96 NE5       30.60R WCI  23
6HR MIN TEMP:  23; 6HR MAX TEMP:  28;



SKY/WX REPORTED AS FAIR MEANS FEW OR NO CLOUDS BELOW
12 THOUSAND FEET.




USA.gov is the U.S. government's official web portal to all federal, state and local government web resources and services.